VSV838 UACK-UAAA

Flight info

Callsign VSV838
Flight time N/A
Altitude 37000
Route N0450F370 DCT LULEK W333 AST RR7 BLH N170 RISAD DCT
Aircraft B738/M-SDE3FGIRWY/LB1D1

Departure

Time 2026-04-18 11:49
Airport Kokshetau International Airport (UACK)

Arrival

Time N/A
Airport Almaty International Airport (UAAA)
Time Latitude Longitude Altitude Speed Heading
2026-04-18 11:17 53.33303 69.59206 870 ft 0 kts 214°
2026-04-18 11:42 53.33302 69.59206 870 ft 0 kts 214°
2026-04-18 11:43 53.33282 69.59197 870 ft 6 kts 174°
2026-04-18 11:43 53.33254 69.59252 870 ft 7 kts 124°
2026-04-18 11:43 53.33236 69.59298 870 ft 0 kts 122°
2026-04-18 11:43 53.33236 69.59299 870 ft 1 kts 122°
2026-04-18 11:44 53.33222 69.59336 870 ft 8 kts 122°
2026-04-18 11:44 53.33176 69.59459 870 ft 16 kts 122°
2026-04-18 11:44 53.33119 69.59622 868 ft 16 kts 106°
2026-04-18 11:44 53.33156 69.59712 869 ft 9 kts 24°
2026-04-18 11:45 53.33211 69.59758 868 ft 9 kts 32°
2026-04-18 11:45 53.33262 69.59812 869 ft 9 kts 32°
2026-04-18 11:45 53.33313 69.59865 870 ft 11 kts 32°
2026-04-18 11:45 53.33406 69.59962 869 ft 19 kts 32°
2026-04-18 11:46 53.33539 69.60101 870 ft 26 kts 31°
2026-04-18 11:46 53.33710 69.60275 869 ft 32 kts 32°
2026-04-18 11:46 53.33869 69.60438 869 ft 27 kts 31°
2026-04-18 11:46 53.34023 69.60596 871 ft 21 kts 31°
2026-04-18 11:47 53.34125 69.60620 871 ft 7 kts 37°
2026-04-18 11:47 53.34124 69.60671 871 ft 5 kts 126°
2026-04-18 11:47 53.34080 69.60659 871 ft 9 kts 210°
2026-04-18 11:47 53.34040 69.60616 871 ft 2 kts 211°
2026-04-18 11:48 53.34026 69.60602 871 ft 4 kts 211°
2026-04-18 11:48 53.33980 69.60555 870 ft 11 kts 211°
2026-04-18 11:48 53.33930 69.60504 870 ft 1 kts 211°
2026-04-18 11:48 53.33865 69.60438 869 ft 39 kts 211°
2026-04-18 11:49 53.33413 69.59966 869 ft 112 kts 212°
2026-04-18 11:49 53.32578 69.59080 902 ft 168 kts 214°
2026-04-18 11:49 53.31518 69.58069 1566 ft 178 kts 213°
2026-04-18 11:49 53.30436 69.56992 2390 ft 181 kts 221°
2026-04-18 11:50 53.29452 69.55869 3620 ft 156 kts 219°
2026-04-18 11:50 53.28623 69.54791 4515 ft 160 kts 227°
2026-04-18 11:50 53.27597 69.53822 5076 ft 183 kts 207°
2026-04-18 11:50 53.26253 69.53863 5543 ft 211 kts 162°
2026-04-18 11:51 53.24954 69.55147 6116 ft 222 kts 153°
2026-04-18 11:51 53.23635 69.56578 6640 ft 230 kts 151°
2026-04-18 11:51 53.22266 69.58056 7139 ft 239 kts 152°
2026-04-18 11:51 53.20838 69.59582 7631 ft 250 kts 152°
2026-04-18 11:52 53.19324 69.61178 8143 ft 265 kts 152°
2026-04-18 11:52 53.17723 69.62851 8696 ft 279 kts 152°
2026-04-18 11:52 53.16031 69.64607 9269 ft 294 kts 152°
2026-04-18 11:52 53.14266 69.66429 9822 ft 301 kts 152°
2026-04-18 11:53 53.12475 69.68272 10352 ft 305 kts 152°
2026-04-18 11:53 53.10652 69.70140 10852 ft 311 kts 152°
2026-04-18 11:53 53.08795 69.72036 11362 ft 318 kts 152°
2026-04-18 11:53 53.06869 69.73996 11897 ft 331 kts 152°
2026-04-18 11:54 53.04866 69.76029 12437 ft 343 kts 152°
2026-04-18 11:54 53.02794 69.78131 12990 ft 355 kts 152°
2026-04-18 11:54 53.00651 69.80301 13536 ft 366 kts 152°
2026-04-18 11:54 52.98445 69.82534 14090 ft 376 kts 152°
2026-04-18 11:55 52.96183 69.84822 14583 ft 386 kts 152°
2026-04-18 11:55 52.93863 69.87165 15084 ft 394 kts 152°
2026-04-18 11:55 52.91495 69.89552 15589 ft 402 kts 151°
2026-04-18 11:55 52.89084 69.91980 16113 ft 410 kts 151°
2026-04-18 11:56 52.86630 69.94448 16621 ft 416 kts 152°
2026-04-18 11:56 52.84135 69.96953 17158 ft 422 kts 151°
2026-04-18 11:56 52.81611 69.99485 17701 ft 427 kts 152°
2026-04-18 11:56 52.79060 70.02041 18248 ft 432 kts 151°
2026-04-18 11:57 52.76479 70.04623 18770 ft 436 kts 152°
2026-04-18 11:57 52.73876 70.07225 19239 ft 439 kts 152°
2026-04-18 11:57 52.71249 70.09843 19741 ft 442 kts 152°
2026-04-18 11:57 52.68607 70.12466 20240 ft 445 kts 153°
2026-04-18 11:58 52.65877 70.14884 20744 ft 445 kts 156°
2026-04-18 11:58 52.63097 70.17147 21263 ft 446 kts 157°
2026-04-18 11:58 52.60294 70.19359 21790 ft 448 kts 158°
2026-04-18 11:58 52.57475 70.21571 22321 ft 449 kts 158°
2026-04-18 11:59 52.54659 70.23790 22858 ft 450 kts 158°
2026-04-18 11:59 52.51838 70.26029 23423 ft 450 kts 157°
2026-04-18 11:59 52.49023 70.28275 23960 ft 451 kts 157°
2026-04-18 11:59 52.46239 70.30503 24428 ft 451 kts 157°
2026-04-18 12:00 52.43429 70.32754 24908 ft 450 kts 158°
2026-04-18 12:00 52.40609 70.35011 25393 ft 450 kts 158°
2026-04-18 12:00 52.37798 70.37256 25888 ft 449 kts 158°
2026-04-18 12:00 52.34994 70.39494 26396 ft 449 kts 158°
2026-04-18 12:01 52.29391 70.43953 27423 ft 446 kts 158°
2026-04-18 12:01 52.26605 70.46165 27953 ft 445 kts 158°
2026-04-18 12:01 52.23823 70.48370 28507 ft 443 kts 158°
2026-04-18 12:02 52.21055 70.50562 29040 ft 442 kts 158°
2026-04-18 12:02 52.18285 70.52751 29611 ft 442 kts 158°
2026-04-18 12:02 52.15517 70.54936 30183 ft 441 kts 159°
2026-04-18 12:02 52.12762 70.57108 30692 ft 440 kts 159°
2026-04-18 12:03 52.10010 70.59275 31198 ft 438 kts 159°
2026-04-18 12:03 52.07273 70.61428 31695 ft 436 kts 159°
2026-04-18 12:03 52.04548 70.63569 32214 ft 434 kts 159°
2026-04-18 12:03 52.01839 70.65694 32740 ft 431 kts 159°
2026-04-18 12:04 51.99153 70.67798 33261 ft 428 kts 159°
2026-04-18 12:04 51.96483 70.69885 33801 ft 424 kts 159°
2026-04-18 12:04 51.93841 70.71947 34343 ft 420 kts 159°
2026-04-18 12:04 51.91223 70.73987 34814 ft 415 kts 159°
2026-04-18 12:05 51.88635 70.76001 35287 ft 410 kts 159°
2026-04-18 12:05 51.86083 70.77986 35766 ft 404 kts 159°
2026-04-18 12:05 51.83565 70.79941 36254 ft 398 kts 159°
2026-04-18 12:05 51.81077 70.81870 36616 ft 397 kts 159°
2026-04-18 12:06 51.78587 70.83795 36856 ft 397 kts 159°
2026-04-18 12:06 51.76100 70.85715 37131 ft 396 kts 159°
2026-04-18 12:06 51.73613 70.87634 37345 ft 397 kts 159°
2026-04-18 12:07 51.68530 70.91543 37334 ft 411 kts 159°
2026-04-18 12:07 51.63295 70.95564 37338 ft 423 kts 159°
2026-04-18 12:08 51.57894 70.99707 37343 ft 436 kts 159°
2026-04-18 12:08 51.52355 71.03946 37337 ft 446 kts 158°
2026-04-18 12:09 51.46735 71.08237 37343 ft 454 kts 158°
2026-04-18 12:09 51.41020 71.12587 37346 ft 463 kts 158°
2026-04-18 12:10 51.35147 71.17044 37346 ft 470 kts 158°
2026-04-18 12:10 51.29206 71.21541 37344 ft 474 kts 158°
2026-04-18 12:11 51.24241 71.25290 37334 ft 474 kts 158°
2026-04-18 12:11 51.18307 71.29760 37332 ft 469 kts 158°
2026-04-18 12:12 51.12404 71.34190 37346 ft 469 kts 158°
2026-04-18 12:12 51.06495 71.38612 37349 ft 470 kts 158°
2026-04-18 12:13 51.00644 71.43272 37340 ft 474 kts 150°
2026-04-18 12:13 50.95570 71.50007 37356 ft 478 kts 138°
2026-04-18 12:14 50.90813 71.57403 37341 ft 479 kts 138°
2026-04-18 12:14 50.86039 71.64769 37348 ft 479 kts 139°
2026-04-18 12:15 50.81235 71.72066 37352 ft 479 kts 139°
2026-04-18 12:15 50.76411 71.79334 37351 ft 479 kts 139°
2026-04-18 12:16 50.71587 71.86577 37356 ft 479 kts 139°
2026-04-18 12:16 50.66757 71.93810 37356 ft 479 kts 139°
2026-04-18 12:17 50.61955 72.00983 37352 ft 479 kts 139°
2026-04-18 12:17 50.57091 72.08228 37364 ft 478 kts 139°
2026-04-18 12:18 50.52254 72.15411 37358 ft 478 kts 139°
2026-04-18 12:18 50.47413 72.22578 37364 ft 478 kts 139°
2026-04-18 12:19 50.42603 72.29680 37366 ft 478 kts 139°
2026-04-18 12:19 50.37755 72.36815 37361 ft 478 kts 139°
2026-04-18 12:20 50.32906 72.43931 37370 ft 478 kts 139°
2026-04-18 12:20 50.28056 72.51029 37354 ft 478 kts 139°
2026-04-18 12:21 50.23203 72.58112 37369 ft 477 kts 139°
2026-04-18 12:21 50.18350 72.65177 37368 ft 477 kts 139°
2026-04-18 12:22 50.13510 72.72281 37364 ft 477 kts 139°
2026-04-18 12:22 50.08692 72.79379 37364 ft 477 kts 139°
2026-04-18 12:23 50.03871 72.86457 37366 ft 477 kts 139°
2026-04-18 12:23 49.99035 72.93527 37366 ft 477 kts 139°
2026-04-18 12:24 49.94203 73.00567 37366 ft 476 kts 139°
2026-04-18 12:24 49.89366 73.07596 37367 ft 476 kts 139°
2026-04-18 12:25 49.84524 73.14612 37369 ft 476 kts 139°
2026-04-18 12:25 49.79677 73.21617 37375 ft 476 kts 139°
2026-04-18 12:26 49.74828 73.28606 37377 ft 476 kts 139°
2026-04-18 12:26 49.69912 73.35453 37366 ft 474 kts 146°
2026-04-18 12:27 49.64250 73.40304 37377 ft 467 kts 162°
2026-04-18 12:27 49.58148 73.43887 37369 ft 467 kts 162°
2026-04-18 12:28 49.52116 73.47420 37372 ft 467 kts 162°
2026-04-18 12:28 49.46020 73.51054 37374 ft 467 kts 162°
2026-04-18 12:29 49.39972 73.54681 37373 ft 467 kts 162°
2026-04-18 12:29 49.33967 73.58277 37379 ft 466 kts 162°
2026-04-18 12:30 49.27921 73.61884 37377 ft 466 kts 162°
2026-04-18 12:30 49.21877 73.65480 37376 ft 466 kts 162°
2026-04-18 12:31 49.15835 73.69064 37374 ft 466 kts 162°
2026-04-18 12:31 49.09794 73.72639 37376 ft 466 kts 162°
2026-04-18 12:32 49.03749 73.76208 37381 ft 465 kts 162°
2026-04-18 12:32 48.97710 73.79763 37383 ft 465 kts 162°
2026-04-18 12:33 48.91671 73.83293 37387 ft 465 kts 162°
2026-04-18 12:33 48.85628 73.86810 37374 ft 465 kts 162°
2026-04-18 12:34 48.79591 73.90318 37382 ft 464 kts 162°
2026-04-18 12:34 48.73558 73.93817 37378 ft 464 kts 162°
2026-04-18 12:35 48.67524 73.97307 37387 ft 464 kts 162°
2026-04-18 12:35 48.61491 74.00788 37385 ft 464 kts 162°
2026-04-18 12:36 48.55471 74.04253 37387 ft 463 kts 162°
2026-04-18 12:36 48.49448 74.07710 37399 ft 463 kts 162°
2026-04-18 12:37 48.43425 74.11158 37392 ft 463 kts 162°
2026-04-18 12:37 48.37410 74.14594 37397 ft 462 kts 162°
2026-04-18 12:38 48.31398 74.18019 37394 ft 462 kts 162°
2026-04-18 12:38 48.25390 74.21433 37391 ft 461 kts 162°
2026-04-18 12:39 48.19422 74.24817 37392 ft 461 kts 162°
2026-04-18 12:39 48.13420 74.28211 37390 ft 461 kts 162°
2026-04-18 12:40 48.07430 74.31622 37388 ft 461 kts 162°
2026-04-18 12:40 48.01442 74.35045 37384 ft 460 kts 162°
2026-04-18 12:41 47.95460 74.38457 37376 ft 460 kts 162°
2026-04-18 12:41 47.89475 74.41857 37377 ft 460 kts 162°
2026-04-18 12:42 47.83499 74.45243 37374 ft 460 kts 162°
2026-04-18 12:42 47.77518 74.48623 37366 ft 460 kts 162°
2026-04-18 12:43 47.71539 74.51994 37367 ft 459 kts 162°
2026-04-18 12:43 47.65562 74.55356 37364 ft 459 kts 162°
2026-04-18 12:44 47.59585 74.58711 37367 ft 459 kts 162°
2026-04-18 12:44 47.53608 74.62057 37360 ft 459 kts 163°
2026-04-18 12:45 47.47629 74.65413 37355 ft 459 kts 162°
2026-04-18 12:45 47.41657 74.68769 37354 ft 459 kts 162°
2026-04-18 12:46 47.35684 74.72118 37355 ft 459 kts 162°
2026-04-18 12:46 47.29715 74.75455 37348 ft 459 kts 163°
2026-04-18 12:47 47.23740 74.78786 37355 ft 459 kts 163°
2026-04-18 12:47 47.17811 74.82083 37349 ft 459 kts 163°
2026-04-18 12:48 47.11839 74.85397 37350 ft 459 kts 163°
2026-04-18 12:48 47.05870 74.88702 37349 ft 458 kts 163°
2026-04-18 12:49 46.99904 74.91996 37347 ft 458 kts 163°
2026-04-18 12:49 46.93932 74.95288 37349 ft 459 kts 163°
2026-04-18 12:50 46.87954 74.98573 37347 ft 459 kts 163°
2026-04-18 12:50 46.81933 75.01597 37347 ft 457 kts 166°